Sedalia, MO

10:31 AM CDT on July 20, 2017 (GMT -0500)
Sedalia Memorial

Weather History for KDMO - March, 2013

Change the Weather History Date:

Wednesday, March 6, 2013

  Actual Average Record
Temperature  
Mean Temperature 29 °F 43 °F  
Max Temperature 34 °F 53 °F 81 °F (1956)
Min Temperature 23 °F 32 °F 0 °F (1960)
Degree Days  
Heating Degree Days 36 22  
Month to date heating degree days 205 140  
Since 1 July heating degree days 3643 3757  
Cooling Degree Days 0 0  
Month to date cooling degree days 0 0  
Year to date cooling degree days 1 0  
Moisture  
Dew Point 19 °F    
Average Humidity 69    
Maximum Humidity 81    
Minimum Humidity 56    
Precipitation  
Precipitation 0.00 in 0.08 in 1.14 in (1961)
Month to date precipitation T 0.48  
Year to date precipitation 5.27 4.08  
Sea Level Pressure  
Sea Level Pressure 30.39 in    
Wind  
Wind Speed 7 mph (NNW)    
Max Wind Speed 22 mph    
Max Gust Speed 28 mph    
Visibility 10 miles    
Events      
T = Trace of Precipitation, MM = Missing Value Source: NWS Daily Summary

Daily Weather History Graph

Daily Weather History Graph

Search for Another Location

Airport or City:

Trip Planner

Search our weather history database for the weather conditions in past years. The results will help you decide how hot, cold, wet, or windy it might be!

Date:

Astronomy

Mar. 06, 2013 Rise Set
Actual Time 6:37 AM CST 6:11 PM CST
Civil Twilight 6:10 AM CST 6:37 PM CST
Nautical Twilight 5:39 AM CST 7:08 PM CST
Astronomical Twilight 5:09 AM CST 7:39 PM CST
Moon 2:44 AM CST (3/6) 12:56 PM CST (3/6)
Length of Visible Light 12h 26m
Length of Day
11h 33m
Waning Crescent, 29% of the Moon is Illuminated
Mar 6
Waning Crescent
Mar 11
New
Mar 19
First Quarter
Mar 27
Full
Apr 2
Last Quarter

Hourly Weather History & Observations

Time (CST) Temp. Windchill Dew Point Humidity Pressure Visibility Wind Dir Wind Speed Gust Speed Precip Events Conditions
12:53 AM 28.9 °F 17.7 °F 19.0 °F 67% 30.34 in 10.0 mi NW 15.0 mph 23.0 mph N/A   Overcast
1:12 AM 28.4 °F 17.0 °F 19.4 °F 69% 30.32 in 10.0 mi NW 15.0 mph - N/A   Overcast
1:53 AM 28.9 °F 16.9 °F 19.9 °F 69% 30.35 in 10.0 mi NW 17.3 mph 23.0 mph N/A   Overcast
2:53 AM 28.0 °F 17.0 °F 19.0 °F 69% 30.35 in 10.0 mi NW 13.8 mph - N/A   Overcast
3:50 AM 28.4 °F 17.0 °F 17.6 °F 64% 30.34 in 10.0 mi NW 15.0 mph - N/A   Overcast
3:53 AM 28.0 °F 17.5 °F 18.0 °F 66% 30.37 in 10.0 mi NW 12.7 mph - N/A   Overcast
4:53 AM 27.0 °F 16.1 °F 19.0 °F 72% 30.39 in 10.0 mi NW 12.7 mph - N/A   Overcast
5:53 AM 27.0 °F 16.7 °F 18.0 °F 69% 30.41 in 10.0 mi NW 11.5 mph - N/A   Overcast
6:53 AM 26.1 °F 16.2 °F 18.0 °F 71% 30.43 in 10.0 mi NW 10.4 mph - N/A   Mostly Cloudy
7:53 AM 26.1 °F 17.6 °F 18.0 °F 71% 30.44 in 10.0 mi NW 8.1 mph - N/A   Mostly Cloudy
8:53 AM 27.0 °F 17.3 °F 18.0 °F 69% 30.45 in 10.0 mi NNW 10.4 mph - N/A   Overcast
9:53 AM 28.0 °F 17.5 °F 19.0 °F 69% 30.45 in 10.0 mi North 12.7 mph - N/A   Overcast
10:53 AM 30.0 °F 22.4 °F 19.0 °F 64% 30.46 in 10.0 mi NNW 8.1 mph - N/A   Overcast
11:53 AM 30.9 °F 24.3 °F 19.0 °F 61% 30.44 in 10.0 mi North 6.9 mph - N/A   Mostly Cloudy
12:09 PM 32.0 °F 28.7 °F 19.4 °F 60% 30.41 in 10.0 mi North 3.5 mph - N/A   Scattered Clouds
12:33 PM 30.2 °F - 17.6 °F 60% 30.41 in 10.0 mi Calm Calm - N/A   Mostly Cloudy
12:53 PM 33.1 °F - 19.0 °F 56% 30.44 in 10.0 mi Calm Calm - N/A   Overcast
1:49 PM 32.0 °F 26.4 °F 19.4 °F 60% 30.39 in 10.0 mi WNW 5.8 mph - 0.00 in   Scattered Clouds
1:53 PM 32.0 °F 27.5 °F 19.9 °F 61% 30.42 in 10.0 mi NW 4.6 mph - 0.00 in   Partly Cloudy
2:53 PM 32.0 °F 24.8 °F 19.9 °F 61% 30.42 in 10.0 mi WNW 8.1 mph - N/A   Clear
3:53 PM 33.1 °F 27.7 °F 19.9 °F 59% 30.40 in 10.0 mi North 5.8 mph - N/A   Clear
4:53 PM 32.0 °F - 19.9 °F 61% 30.39 in 10.0 mi Calm Calm - N/A   Clear
5:53 PM 30.9 °F - 19.9 °F 64% 30.37 in 10.0 mi Calm Calm - N/A   Clear
6:53 PM 28.9 °F 25.2 °F 19.9 °F 69% 30.38 in 10.0 mi NW 3.5 mph - N/A   Clear
7:53 PM 27.0 °F - 19.9 °F 75% 30.37 in 10.0 mi Calm Calm - N/A   Clear
8:53 PM 26.1 °F 21.9 °F 19.0 °F 75% 30.37 in 10.0 mi NE 3.5 mph - N/A   Clear
9:53 PM 25.0 °F 20.7 °F 19.0 °F 78% 30.36 in 10.0 mi East 3.5 mph - N/A   Clear
10:53 PM 24.1 °F 19.7 °F 18.0 °F 77% 30.35 in 10.0 mi East 3.5 mph - N/A   Clear
11:53 PM 23.0 °F 18.4 °F 18.0 °F 81% 30.35 in 10.0 mi ESE 3.5 mph - N/A   Clear